Location: Unspecified
(0.0000°N, 0.0000°E)
Time: 16:27:33
(UTC+00:00)

Vanguard 1 Rocket - Pass Details

Date: 24 November 2019
Orbit: 650 x 4226 km, 34.3° (Epoch: 12 December)

Event Time Altitude Azimuth Distance (km) Brightness Sun altitude
Rises 12:51:01 0° 265° (W) 5,815 11.7 64.1°
Reaches altitude 10° 12:55:06 10° 254° (WSW) 5,286 11.8 63.5°
Maximum altitude 13:09:26 30° 199° (SSW) 5,087 12.3 61.1°
Drops below altitude 10° 13:30:09 10° 144° (SE) 7,430 12.2 57.4°
Sets 13:37:50 0° 134° (SE) 8,421 12.3 55.9°
